Regional Weather Roundup
Issued by NWS

Home | Current Version | Previous Version | Text Only | Print | Product List | Glossary On
Versions: 1 2 3 4 5 6 7 8 9 10 11 12 13 14 15 16 17 18 19 20 21 22 23 24 25 26 27 28 29 30 31 32 33 34 35 36 37 38 39 40 41 42 43 44 45 46 47 48 49 50
000
ASUS43 KOAX 261510
RWRNE

WEATHER ROUNDUP FOR NEBRASKA
NATIONAL WEATHER SERVICE OMAHA NE
1000 AM CDT TUE MAY 26 2015

NOTES: SATELLITE DATA IS BEING USED TO AUGMENT CLOUD COVER ABOVE
       12000 FEET.
       "FAIR" INDICATES FEW OR NO CLOUDS BELOW 12,000 FEET WITH NO
       SIGNIFICANT WEATHER AND/OR OBSTRUCTIONS TO VISIBILITY.

  * THESE STATIONS DO NOT REPORT WEATHER SUCH AS RAIN...SNOW OR FOG.

NEZ001>004-019>022-054>056-261600-
NEBRASKA PANHANDLE

CITY           SKY/WX    TMP DP  RH WIND       PRES   REMARKS
SCOTTSBLUFF    CLOUDY    58  52  80 NW3       30.02R
ALLIANCE       CLOUDY    56  52  86 NE9       30.00S
CHADRON        LGT RAIN  55  53  93 CALM      30.01S FOG
KIMBALL          N/A    N/A N/A N/A MISG        N/A
SIDNEY         CLOUDY    52  51  97 NW7       30.04R
$$

NEZ057>060-069>072-079>082-261600-
SOUTHWEST NEBRASKA

CITY           SKY/WX    TMP DP  RH WIND       PRES   REMARKS
NORTH PLATTE   PTSUNNY   58  48  69 N13       29.97R
IMPERIAL       MOSUNNY   58  52  80 N9        30.00R
LEXINGTON      PTSUNNY   60  53  77 NW13      29.94R
MCCOOK         PTSUNNY   63  51  65 N13       29.96R
OGALLALA       CLOUDY    57  53  85 NW6       30.00R
$$

NEZ005>010-023>029-035>040-094-261600-
NORTH CENTRAL NEBRASKA

CITY           SKY/WX    TMP DP  RH WIND       PRES   REMARKS
VALENTINE      MOSUNNY   62  48  60 N13       29.97R
AINSWORTH      MOSUNNY   60  52  75 N13G20    29.95R
BROKEN BOW     CLOUDY    57  49  74 N18       29.92R
O`NEILL        CLOUDY    58  52  81 N15G21    29.90R
ORD            CLOUDY    58  51  78 N16       29.87S
THEDFORD       MOSUNNY   59  50  73 N12G17    29.97S
$$

NEZ041-046>049-061>064-073>077-083>087-261600-
SOUTH CENTRAL NEBRASKA

CITY           SKY/WX    TMP DP  RH WIND       PRES   REMARKS
GRAND ISLAND   CLOUDY    59  54  83 N14       29.87R
AURORA         CLOUDY    58  58  97 NW20      29.86R
HASTINGS       CLOUDY    61  54  77 N14       29.88R
HEBRON         PTSUNNY   65  56  72 NW13G18   29.83R
HOLDREGE       PTSUNNY   61  51  70 NW13G21   29.92R
KEARNEY *      PTSUNNY   61  52  72 NW17G25   29.90R
YORK           CLOUDY    61  59  94 NW18      29.83R
$$

NEZ011>018-030>034-042>045-261600-
NORTHEAST NEBRASKA

CITY           SKY/WX    TMP DP  RH WIND       PRES   REMARKS
NORFOLK        CLOUDY    57  55  93 NW14      29.83R
ALBION         CLOUDY    56  55  94 N10       29.86S
BLAIR          CLOUDY    62  57  85 CALM      29.78S
COLUMBUS *     CLOUDY    61  52  72 NW13      29.83R
FREMONT        LGT RAIN  62  60  94 SW3       29.79R
TEKAMAH        CLOUDY    65  60  84 W10       29.77F
WAYNE          CLOUDY    58  56  94 N12       29.82R
$$

NEZ050>053-065>068-078-088>093-261600-
SOUTHEAST NEBRASKA

CITY           SKY/WX    TMP DP  RH WIND       PRES   REMARKS
LINCOLN        CLOUDY    65  58  78 NE3       29.80R
OMAHA EPPLEY   CLOUDY    65  60  84 S6        29.78S
BEATRICE       PTSUNNY   64  58  80 SW9       29.80S
FALLS CITY     CLOUDY    63  60  90 S7        29.80R
NEBRASKA CITY  LGT RAIN  62  62  99 S5        29.80F
PLATTSMOUTH    CLOUDY    64  58  82 S8        29.79F
$$

NEZ044-045-051>053-067-261600-
OMAHA AREA

CITY           SKY/WX    TMP DP  RH WIND       PRES   REMARKS
OMAHA EPPLEY   CLOUDY    65  60  84 S6        29.78S
BLAIR          CLOUDY    62  57  85 CALM      29.78S
FREMONT        LGT RAIN  62  60  94 SW3       29.79R
MILLARD        LGT RAIN  64  59  84 SW3       29.79R
OFFUTT AFB     CLOUDY    64  60  87 S5        29.77F
PLATTSMOUTH    CLOUDY    64  58  82 S8        29.79F
WAHOO          CLOUDY    63  60  89 NW3       29.80R
$$



USA.gov is the U.S. government's official web portal to all federal, state and local government web resources and services.